STARLINK AX

Last updated on June 19, 2020, 12:02 a.m. UTC

1 45775U 20038AX  20170.66667824  .00090059  11274-4  11273-3 0  9995
2 45775  52.9997 272.2357 0111432  69.2194  29.1773 15.96137130  1974

Satellite is not in orbit.